Weather History for Perry, FL

Change the Weather History Date:

Friday, May 24, 2013

  Actual Average (KCTY) Record (KCTY)
Temperature  
Mean Temperature 78 °F 77 °F  
Max Temperature 91 °F 89 °F 98 °F (2012)
Min Temperature 64 °F 64 °F 53 °F (2001)
Degree Days  
Heating Degree Days 0 0  
Month to date heating degree days 0  
Since 1 July heating degree days 1303  
Cooling Degree Days 12 12  
Month to date cooling degree days 210  
Year to date cooling degree days 392  
Growing Degree Days 28 (Base 50)    
Moisture  
Dew Point 59 °F    
Average Humidity 59    
Maximum Humidity 100    
Minimum Humidity 23    
Precipitation  
Precipitation 0.01 in 0.10 in 0.39 in (2012)
Month to date precipitation 1.75  
Year to date precipitation 16.23  
Sea Level Pressure  
Sea Level Pressure 30.05 in    
Wind  
Wind Speed 4 mph (NNW)    
Max Wind Speed 15 mph    
Max Gust Speed 24 mph    
Visibility 8 miles    
Events Fog    
T = Trace of Precipitation, MM = Missing Value Source: NWS Daily Summary

Daily Weather History Graph

Daily Weather History Graph

Search for Another Location

Airport:

Trip Planner

Search our weather history database for the weather conditions in past years. The results will help you decide how hot, cold, wet, or windy it might be!

Date:

Astronomy

May. 24, 2013 Rise Set
Actual Time 6:35 AM EDT 8:26 PM EDT
Civil Twilight 6:09 AM EDT 8:53 PM EDT
Nautical Twilight 5:37 AM EDT 9:25 PM EDT
Astronomical Twilight 5:03 AM EDT 9:59 PM EDT
Moon 8:09 PM EDT (5/24) 6:03 AM EDT (5/24)
Length of Visible Light 14h 44m
Length of Day
13h 50m
Full, 100% of the Moon is Illuminated
May 24
Full
May 25
Full
May 31
Last Quarter
Jun 8
New
Jun 16
First Quarter

Hourly Weather History & Observations

Time (EDT) Temp. Heat Index Dew Point Humidity Pressure Visibility Wind Dir Wind Speed Gust Speed Precip Events Conditions
12:15 AM 71.6 °F - 69.8 °F 94% 30.01 in 7.0 mi Calm Calm - N/A   Clear
12:35 AM 71.6 °F - 69.8 °F 94% 30.01 in 5.0 mi Calm Calm - N/A   Clear
12:53 AM 73.0 °F - 70.0 °F 90% 29.99 in - Calm Calm - N/A   Unknown
12:55 AM 71.6 °F - 69.8 °F 94% 30.01 in 5.0 mi Calm Calm - N/A   Clear
1:15 AM 71.6 °F - 69.8 °F 94% 30.01 in 7.0 mi West 3.5 mph - N/A   Clear
1:35 AM 69.8 °F - 68.0 °F 94% 30.00 in 10.0 mi WNW 4.6 mph - N/A   Clear
1:53 AM 72.0 °F - 68.0 °F 87% 29.99 in - Calm Calm - N/A   Unknown
1:55 AM 69.8 °F - 68.0 °F 94% 30.00 in 10.0 mi Calm Calm - N/A   Clear
2:15 AM 69.8 °F - 68.0 °F 94% 30.00 in 7.0 mi Calm Calm - N/A   Clear
2:35 AM 69.8 °F - 68.0 °F 94% 30.00 in 7.0 mi Calm Calm - N/A   Clear
2:53 AM 70.0 °F - 66.9 °F 90% 29.98 in - Calm Calm - N/A   Unknown
2:55 AM 68.0 °F - 68.0 °F 100% 30.00 in 4.0 mi Calm Calm - N/A   Clear
3:15 AM 68.0 °F - 68.0 °F 100% 30.00 in 7.0 mi Calm Calm - N/A   Clear
3:35 AM 68.0 °F - 66.2 °F 94% 29.99 in 5.0 mi Calm Calm - N/A   Clear
3:53 AM 69.1 °F - 66.0 °F 90% 29.98 in - Calm Calm - N/A   Unknown
3:55 AM 68.0 °F - 66.2 °F 94% 29.99 in 5.0 mi Calm Calm - N/A   Clear
4:15 AM 68.0 °F - 66.2 °F 94% 29.99 in 7.0 mi Calm Calm - N/A   Clear
4:35 AM 68.0 °F - 66.2 °F 94% 29.99 in 7.0 mi Calm Calm - N/A   Clear
4:53 AM 68.0 °F - 64.9 °F 90% 29.99 in - Calm Calm - N/A   Unknown
4:55 AM 66.2 °F - 64.4 °F 94% 30.00 in 5.0 mi Calm Calm - N/A   Clear
5:15 AM 64.4 °F - 64.4 °F 100% 30.00 in 0.8 mi Calm Calm - N/A   Mist
5:35 AM 64.4 °F - 64.4 °F 100% 30.01 in 5.0 mi Calm Calm - N/A   Clear
5:53 AM 66.9 °F - 64.0 °F 90% 30.00 in - Calm Calm - 0.01 in   Unknown
5:55 AM 64.4 °F - 64.4 °F 100% 30.02 in 5.0 mi Calm Calm - N/A   Clear
6:15 AM 64.4 °F - 64.4 °F 100% 30.02 in 2.0 mi Calm Calm - N/A   Clear
6:35 AM 64.4 °F - 64.4 °F 100% 30.03 in 4.0 mi Calm Calm - N/A   Clear
6:53 AM 66.9 °F - 64.0 °F 90% 30.01 in - Calm Calm - N/A   Unknown
6:55 AM 64.4 °F - 64.4 °F 100% 30.03 in 0.2 mi Calm Calm - N/A Fog Fog
7:15 AM 64.4 °F - 62.6 °F 94% 30.03 in 0.2 mi Calm Calm - N/A Fog Fog
7:35 AM 64.4 °F - 64.4 °F 100% 30.04 in 5.0 mi Calm Calm - N/A   Clear
7:53 AM 69.1 °F - 66.9 °F 93% 30.03 in - NNW 3.5 mph - N/A   Unknown
7:55 AM 68.0 °F - 66.2 °F 94% 30.04 in 7.0 mi Calm Calm - N/A   Clear
8:15 AM 69.8 °F - 68.0 °F 94% 30.04 in 10.0 mi Calm Calm - N/A   Clear
8:35 AM 69.8 °F - 68.0 °F 94% 30.05 in 10.0 mi North 6.9 mph - N/A   Clear
8:53 AM 77.0 °F - 63.0 °F 62% 30.04 in - NNW 6.9 mph - N/A   Unknown
8:55 AM 73.4 °F - 64.4 °F 73% 30.06 in 10.0 mi NNW 5.8 mph - N/A   Clear
9:15 AM 77.0 °F - 62.6 °F 61% 30.07 in 10.0 mi North 9.2 mph - N/A   Clear
9:35 AM 77.0 °F - 60.8 °F 57% 30.07 in 10.0 mi North 9.2 mph - N/A   Clear
9:53 AM 80.1 °F 81.1 °F 61.0 °F 52% 30.06 in - North 10.4 mph 17.3 mph N/A   Unknown
9:55 AM 77.0 °F - 60.8 °F 57% 30.08 in 10.0 mi North 10.4 mph - N/A   Clear
10:15 AM 78.8 °F - 60.8 °F 54% 30.08 in 10.0 mi North 6.9 mph - N/A   Clear
10:35 AM 80.6 °F 81.5 °F 60.8 °F 51% 30.08 in 10.0 mi North 9.2 mph - N/A   Clear
10:53 AM 84.0 °F 84.0 °F 60.1 °F 44% 30.07 in - North 5.8 mph - N/A   Unknown
10:55 AM 80.6 °F 81.1 °F 59.0 °F 48% 30.08 in 10.0 mi North 4.6 mph - N/A   Clear
11:15 AM 80.6 °F 81.1 °F 59.0 °F 48% 30.09 in 10.0 mi North 11.5 mph - N/A   Clear
11:35 AM 82.4 °F 82.5 °F 59.0 °F 45% 30.09 in 10.0 mi North 6.9 mph - N/A   Clear
11:53 AM 86.0 °F 86.1 °F 61.0 °F 43% 30.08 in - NW 11.5 mph 17.3 mph N/A   Unknown
11:55 AM 82.4 °F 82.5 °F 59.0 °F 45% 30.09 in 10.0 mi NW 10.4 mph - N/A   Clear
12:15 PM 82.4 °F 82.5 °F 59.0 °F 45% 30.09 in 10.0 mi WNW 10.4 mph - N/A   Clear
12:35 PM 84.2 °F 83.8 °F 59.0 °F 42% 30.09 in 10.0 mi NW 8.1 mph 20.7 mph N/A   Clear
12:53 PM 89.1 °F 89.0 °F 61.0 °F 39% 30.07 in - WNW 11.5 mph 16.1 mph N/A   Unknown
12:55 PM 86.0 °F 85.4 °F 59.0 °F 40% 30.09 in 10.0 mi NW 10.4 mph - N/A   Clear
1:15 PM 86.0 °F 84.9 °F 57.2 °F 37% 30.08 in 10.0 mi NW 12.7 mph 20.7 mph N/A   Scattered Clouds
1:35 PM 86.0 °F 84.9 °F 57.2 °F 37% 30.08 in 10.0 mi NNW 12.7 mph 16.1 mph N/A   Scattered Clouds
1:53 PM 89.1 °F 88.2 °F 59.0 °F 36% 30.06 in - WNW 11.5 mph 18.4 mph N/A   Unknown
1:55 PM 87.8 °F 86.1 °F 55.4 °F 33% 30.08 in 10.0 mi WNW 10.4 mph 17.3 mph N/A   Scattered Clouds
2:15 PM 87.8 °F 85.7 °F 53.6 °F 31% 30.07 in 10.0 mi NW 11.5 mph 18.4 mph N/A   Clear
2:35 PM 87.8 °F 85.7 °F 53.6 °F 31% 30.07 in 10.0 mi NNW 10.4 mph 16.1 mph N/A   Clear
2:53 PM 91.0 °F 89.7 °F 57.0 °F 32% 30.05 in - WNW 11.5 mph 18.4 mph N/A   Unknown
2:55 PM 87.8 °F 85.7 °F 53.6 °F 31% 30.06 in 10.0 mi WNW 10.4 mph - N/A   Scattered Clouds
3:15 PM 86.0 °F 84.2 °F 53.6 °F 33% 30.06 in 10.0 mi North 10.4 mph - N/A   Scattered Clouds
3:35 PM 86.0 °F 84.2 °F 53.6 °F 33% 30.05 in 10.0 mi NNW 9.2 mph 17.3 mph N/A   Scattered Clouds
3:53 PM 91.0 °F 89.7 °F 57.0 °F 32% 30.04 in - North 8.1 mph 16.1 mph N/A   Unknown
3:55 PM 87.8 °F - 51.8 °F 29% 30.05 in 10.0 mi North 6.9 mph - N/A   Scattered Clouds
4:15 PM 87.8 °F 85.7 °F 53.6 °F 31% 30.05 in 10.0 mi NW 11.5 mph 20.7 mph N/A   Clear
4:35 PM 87.8 °F - 51.8 °F 29% 30.05 in 10.0 mi WNW 15.0 mph 18.4 mph N/A   Mostly Cloudy
4:53 PM 91.0 °F 89.2 °F 55.9 °F 30% 30.04 in - NNW 12.7 mph 18.4 mph N/A   Unknown
4:55 PM 87.8 °F - 51.8 °F 29% 30.05 in 10.0 mi NNW 12.7 mph 18.4 mph N/A   Scattered Clouds
5:15 PM 87.8 °F - 51.8 °F 29% 30.05 in 10.0 mi NW 9.2 mph 16.1 mph N/A   Clear
5:35 PM 87.8 °F - 48.2 °F 25% 30.05 in 10.0 mi North 8.1 mph 17.3 mph N/A   Clear
5:53 PM 91.0 °F - 51.1 °F 25% 30.04 in - WNW 13.8 mph 24.2 mph N/A   Unknown
5:55 PM 87.8 °F - 46.4 °F 24% 30.05 in 10.0 mi NW 12.7 mph 23.0 mph N/A   Clear
6:15 PM 87.8 °F - 48.2 °F 25% 30.05 in 10.0 mi North 5.8 mph - N/A   Clear
6:35 PM 87.8 °F - 46.4 °F 24% 30.05 in 10.0 mi North 9.2 mph - N/A   Clear
6:53 PM 89.1 °F - 48.0 °F 24% 30.04 in - North 11.5 mph - N/A   Unknown
6:55 PM 86.0 °F - 44.6 °F 23% 30.05 in 10.0 mi North 12.7 mph - N/A   Clear
7:15 PM 86.0 °F - 44.6 °F 23% 30.05 in 10.0 mi North 8.1 mph - N/A   Clear
7:35 PM 84.2 °F - 46.4 °F 27% 30.05 in 10.0 mi North 6.9 mph - N/A   Clear
7:53 PM 84.9 °F - 52.0 °F 32% 30.04 in - North 8.1 mph - N/A   Unknown
7:55 PM 82.4 °F - 48.2 °F 30% 30.06 in 10.0 mi North 5.8 mph - N/A   Clear
8:15 PM 80.6 °F - 48.2 °F 32% 30.06 in 10.0 mi NNE 5.8 mph - N/A   Clear
8:35 PM 78.8 °F - 50.0 °F 36% 30.07 in 10.0 mi NNE 3.5 mph - N/A   Clear
8:53 PM 79.0 °F - 52.0 °F 39% 30.06 in - North 3.5 mph - N/A   Unknown
8:55 PM 77.0 °F - 50.0 °F 39% 30.08 in 10.0 mi Calm Calm - N/A   Clear
9:15 PM 77.0 °F - 50.0 °F 39% 30.08 in 10.0 mi NNE 3.5 mph - N/A   Clear
9:35 PM 73.4 °F - 51.8 °F 47% 30.09 in 10.0 mi Calm Calm - N/A   Clear
9:53 PM 75.0 °F - 52.0 °F 44% 30.09 in - North 4.6 mph - N/A   Unknown
9:55 PM 73.4 °F - 51.8 °F 47% 30.10 in 10.0 mi North 4.6 mph - N/A   Clear
10:15 PM 71.6 °F - 51.8 °F 50% 30.11 in 10.0 mi North 4.6 mph - N/A   Clear
10:35 PM 71.6 °F - 51.8 °F 50% 30.12 in 10.0 mi NNE 3.5 mph - N/A   Clear
10:53 PM 73.0 °F - 52.0 °F 48% 30.11 in - NNE 5.8 mph - N/A   Unknown
10:55 PM 71.6 °F - 51.8 °F 50% 30.13 in 10.0 mi NNE 4.6 mph - N/A   Clear
11:15 PM 69.8 °F - 51.8 °F 53% 30.13 in 10.0 mi NNE 4.6 mph - N/A   Clear
11:35 PM 69.8 °F - 51.8 °F 53% 30.13 in 10.0 mi NNE 3.5 mph - N/A   Clear
11:53 PM 70.0 °F - 52.0 °F 53% 30.13 in - North 5.8 mph - N/A   Unknown
11:55 PM 68.0 °F - 51.8 °F 56% 30.14 in 10.0 mi NNE 4.6 mph - N/A   Clear